Terminal Aerodrome Forecast
Issued by NWS Norman, OK

Home | Current Version | Previous Version | Text Only | Print | Product List | Glossary On
Versions: 1 2 3 4 5 6 7 8 9 10 11 12 13 14 15 16 17 18 19 20 21 22 23 24 25 26 27
000
FTUS44 KOUN 291120
TAFSPS
TAF
KSPS 291120Z 2912/3012 19007KT P6SM BKN100
     FM291600 19011KT P6SM SCT060 PROB30 2921/3001 2SM +TSRA BR
      OVC025CB
     FM300100 16012KT P6SM BKN080=

USA.gov is the U.S. government's official web portal to all federal, state and local government web resources and services.